Location: Frydek-Mistek
(49.6830°N, 18.3330°E)
Time: 03:20:42
(UTC+01:00)

ISS - Pass Details

Date: 02 October 2020
Orbit: 417 x 420 km, 51.6° (Epoch: 25 October)

Event Time Altitude Azimuth Distance (km) Brightness Sun altitude
Rises 20:19:25 0° 288° (WNW) 2,370 1.7 -19.6°
Reaches altitude 10° 20:21:37 10° 279° (W) 1,503 0.2 -19.9°
Maximum altitude 20:24:43 35° 212° (SSW) 694 -2.6 -20.4°
Enters shadow 20:24:57 35° 202° (SSW) 700 -2.7 -20.4°
